Location: Unspecified
(0.0000°N, 0.0000°E)
Time: 15:49:15
(UTC+00:00)

AD-A Canister/Altair 2 - Pass Details

Date: 30 April 2025
Orbit: 593 x 2295 km, 78.6° (Epoch: 12 May)

Event Time Altitude Azimuth Distance (km) Brightness Sun altitude
Rises 20:36:58 0° 203° (SSW) 5,837 11.6 -38.3°
Reaches altitude 10° 20:40:49 10° 209° (SSW) 4,872 11.2 -39.2°
Maximum altitude 20:52:45 42° 274° (W) 2,880 10.1 -42.0°
Drops below altitude 10° 21:03:14 10° 341° (NNW) 4,247 11.1 -44.5°
Sets 21:06:25 0° 348° (NNW) 5,039 11.5 -45.2°
